QPF
0.00 0.00 0.00 0.00 0.00 0.00 0.00 0.00 0.00 0.00 0.00 0.00 0.00 0.00 0.00 0.00 0.00 0.01 0.00 0.00 0.00 0.00 0.00 0.00 0.01 0.01 0.02 0.02 0.02 0.03 0.02 0.01 0.02 0.02 0.03 0.04 0.05 0.05 0.05 0.06 0.05 0.05 0.05 0.05 0.04 0.04 0.05 0.03 0.03
0.00 0.00 0.00 0.00 0.00 0.00 0.00 0.00 0.00 0.00 0.00 0.00 0.00 0.00 0.00 0.00 0.00 0.00 0.00 0.00 0.00 0.00 0.00 0.01 0.01 0.01 0.02 0.02 0.02 0.02 0.02 0.02 0.03 0.02 0.02 0.02 0.03 0.05 0.05 0.05 0.03 0.05 0.08 0.06 0.06 0.04 0.04 0.03 0.02
0.00 0.00 0.00 0.00 0.00 0.00 0.00 0.00 0.00 0.00 0.00 0.00 0.00 0.00 0.00 0.00 0.00 0.00 0.00 0.00 0.00 0.00 0.00 0.02 0.02 0.01 0.02 0.03 0.02 0.02 0.02 0.03 0.03 0.02 0.02 0.02 0.03 0.04 0.04 0.04 0.02 0.04 0.10 0.11 0.07 0.04 0.03 0.02 0.02
0.00 0.00 0.00 0.00 0.00 0.00 0.00 0.00 0.00 0.00 0.00 0.00 0.00 0.00 0.00 0.00 0.00 0.00 0.00 0.00 0.00 0.00 0.00 0.02 0.02 0.02 0.02 0.02 0.02 0.02 0.02 0.03 0.03 0.02 0.03 0.03 0.03 0.03 0.03 0.03 0.03 0.02 0.04 0.09 0.07 0.04 0.04 0.03 0.03
0.00 0.00 0.00 0.00 0.00 0.00 0.00 0.00 0.00 0.00 0.00 0.00 0.00 0.00 0.00 0.00 0.00 0.00 0.00 0.00 0.00 0.00 0.01 0.02 0.02 0.02 0.02 0.02 0.03 0.02 0.02 0.03 0.03 0.02 0.02 0.02 0.02 0.03 0.03 0.02 0.02 0.02 0.03 0.06 0.07 0.06 0.05 0.03 0.03
0.00 0.00 0.00 0.00 0.00 0.00 0.00 0.00 0.00 0.00 0.00 0.00 0.00 0.00 0.00 0.00 0.00 0.00 0.00 0.00 0.00 0.00 0.00 0.01 0.02 0.02 0.02 0.03 0.03 0.03 0.03 0.03 0.03 0.03 0.02 0.02 0.02 0.03 0.02 0.02 0.01 0.01 0.02 0.04 0.05 0.05 0.05 0.03 0.02
0.00 0.00 0.00 0.00 0.00 0.00 0.00 0.00 0.00 0.00 0.00 0.00 0.00 0.00 0.00 0.00 0.00 0.00 0.00 0.00 0.01 0.00 0.01 0.01 0.02 0.02 0.02 0.02 0.03 0.03 0.03 0.03 0.03 0.02 0.02 0.02 0.03 0.03 0.02 0.02 0.01 0.01 0.03 0.03 0.05 0.05 0.04 0.03 0.02
0.00 0.00 0.00 0.00 0.00 0.00 0.00 0.00 0.00 0.00 0.00 0.00 0.00 0.00 0.00 0.00 0.00 0.00 0.00 0.00 0.01 0.01 0.01 0.01 0.01 0.01 0.02 0.02 0.03 0.03 0.02 0.02 0.02 0.02 0.01 0.01 0.02 0.03 0.02 0.01 0.01 0.01 0.02 0.03 0.05 0.08 0.07 0.05 0.03
0.00 0.00 0.00 0.00 0.00 0.00 0.00 0.00 0.00 0.00 0.00 0.00 0.00 0.00 0.00 0.00 0.00 0.00 0.00 0.01 0.01 0.01 0.02 0.02 0.01 0.01 0.01 0.02 0.03 0.03 0.02 0.02 0.02 0.02 0.02 0.01 0.02 0.03 0.02 0.01 0.01 0.01 0.01 0.02 0.03 0.05 0.08 0.06 0.05
0.00 0.00 0.00 0.00 0.00 0.00 0.00 0.00 0.00 0.00 0.00 0.00 0.00 0.00 0.00 0.00 0.00 0.00 0.00 0.00 0.01 0.01 0.02 0.03 0.03 0.03 0.02 0.02 0.03 0.03 0.03 0.03 0.02 0.02 0.02 0.02 0.02 0.03 0.03 0.02 0.01 0.01 0.01 0.01 0.02 0.03 0.03 0.04 0.04
0.00 0.00 0.00 0.00 0.00 0.00 0.00 0.00 0.00 0.00 0.00 0.00 0.00 0.00 0.00 0.00 0.00 0.00 0.00 0.00 0.01 0.01 0.02 0.03 0.04 0.04 0.03 0.03 0.03 0.04 0.04 0.05 0.04 0.02 0.02 0.02 0.02 0.04 0.03 0.02 0.02 0.02 0.02 0.01 0.01 0.02 0.03 0.03 0.03
0.00 0.00 0.00 0.00 0.00 0.00 0.00 0.00 0.00 0.00 0.00 0.00 0.00 0.00 0.00 0.00 0.00 0.00 0.00 0.00 0.00 0.01 0.02 0.02 0.03 0.04 0.03 0.03 0.03 0.03 0.04 0.04 0.04 0.04 0.02 0.02 0.03 0.03 0.02 0.02 0.02 0.02 0.02 0.02 0.02 0.01 0.02 0.02 0.03
0.00 0.00 0.00 0.00 0.00 0.00 0.00 0.00 0.00 0.00 0.00 0.00 0.00 0.00 0.00 0.00 0.00 0.00 0.00 0.00 0.00 0.01 0.01 0.02 0.02 0.03 0.04 0.04 0.04 0.03 0.03 0.04 0.04 0.04 0.03 0.02 0.02 0.02 0.02 0.02 0.03 0.03 0.02 0.02 0.02 0.02 0.02 0.02 0.02
0.00 0.00 0.00 0.00 0.00 0.00 0.00 0.00 0.00 0.00 0.00 0.00 0.00 0.00 0.00 0.00 0.00 0.00 0.00 0.00 0.00 0.00 0.01 0.01 0.02 0.02 0.03 0.04 0.04 0.04 0.04 0.03 0.04 0.04 0.03 0.03 0.02 0.02 0.02 0.01 0.02 0.03 0.04 0.04 0.03 0.02 0.03 0.04 0.03
0.00 0.00 0.00 0.00 0.00 0.00 0.00 0.00 0.00 0.00 0.00 0.00 0.00 0.00 0.00 0.00 0.00 0.00 0.00 0.00 0.00 0.00 0.01 0.01 0.01 0.02 0.02 0.03 0.04 0.03 0.04 0.04 0.04 0.03 0.04 0.03 0.03 0.02 0.02 0.01 0.01 0.01 0.02 0.03 0.04 0.03 0.02 0.03 0.04
0.00 0.00 0.00 0.00 0.00 0.00 0.00 0.00 0.00 0.00 0.00 0.00 0.00 0.00 0.00 0.00 0.00 0.00 0.00 0.00 0.00 0.00 0.00 0.01 0.01 0.01 0.02 0.02 0.04 0.04 0.03 0.04 0.05 0.04 0.04 0.03 0.03 0.02 0.02 0.02 0.01 0.01 0.01 0.01 0.02 0.03 0.03 0.03 0.03
0.00 0.00 0.00 0.00 0.00 0.00 0.00 0.00 0.00 0.00 0.00 0.00 0.00 0.00 0.00 0.00 0.00 0.00 0.00 0.00 0.00 0.00 0.00 0.00 0.00 0.01 0.02 0.02 0.03 0.03 0.03 0.03 0.04 0.05 0.04 0.04 0.04 0.03 0.03 0.02 0.01 0.01 0.01 0.01 0.01 0.02 0.02 0.03 0.03
0.00 0.00 0.00 0.00 0.00 0.00 0.00 0.00 0.00 0.00 0.00 0.00 0.00 0.00 0.00 0.00 0.00 0.00 0.00 0.00 0.00 0.00 0.00 0.00 0.00 0.01 0.01 0.02 0.02 0.03 0.03 0.03 0.04 0.05 0.03 0.03 0.04 0.03 0.04 0.03 0.02 0.01 0.01 0.01 0.01 0.01 0.01 0.02 0.02
0.00 0.00 0.00 0.00 0.00 0.00 0.00 0.00 0.00 0.00 0.00 0.00 0.00 0.00 0.00 0.00 0.00 0.00 0.00 0.00 0.00 0.00 0.00 0.00 0.00 0.00 0.01 0.02 0.02 0.02 0.02 0.02 0.02 0.04 0.04 0.04 0.04 0.03 0.04 0.03 0.02 0.02 0.01 0.01 0.01 0.01 0.01 0.01 0.02
0.01 0.00 0.00 0.00 0.00 0.00 0.00 0.00 0.00 0.00 0.00 0.00 0.00 0.00 0.00 0.00 0.00 0.00 0.00 0.00 0.00 0.00 0.00 0.00 0.00 0.00 0.00 0.01 0.02 0.02 0.02 0.02 0.02 0.03 0.04 0.04 0.04 0.05 0.04 0.03 0.02 0.02 0.02 0.01 0.01 0.01 0.01 0.01 0.02
0.01 0.01 0.01 0.00 0.00 0.00 0.00 0.00 0.00 0.00 0.00 0.00 0.00 0.00 0.00 0.00 0.00 0.00 0.00 0.00 0.00 0.00 0.00 0.00 0.00 0.00 0.00 0.00 0.01 0.02 0.04 0.04 0.02 0.02 0.03 0.03 0.04 0.04 0.05 0.04 0.04 0.02 0.02 0.02 0.01 0.01 0.01 0.02 0.02
0.01 0.00 0.00 0.00 0.01 0.00 0.00 0.00 0.00 0.00 0.00 0.00 0.00 0.00 0.00 0.00 0.00 0.00 0.00 0.00 0.00 0.00 0.00 0.00 0.00 0.00 0.00 0.00 0.00 0.01 0.03 0.06 0.04 0.01 0.01 0.03 0.03 0.04 0.04 0.04 0.04 0.03 0.02 0.01 0.01 0.01 0.01 0.01 0.02
0.00 0.00 0.00 0.01 0.01 0.01 0.00 0.01 0.00 0.00 0.00 0.00 0.00 0.00 0.00 0.00 0.00 0.00 0.00 0.00 0.00 0.00 0.00 0.00 0.00 0.00 0.00 0.00 0.00 0.00 0.02 0.05 0.06 0.03 0.02 0.02 0.03 0.04 0.04 0.04 0.04 0.03 0.03 0.02 0.02 0.02 0.01 0.01 0.01
0.00 0.00 0.00 0.01 0.01 0.02 0.01 0.01 0.01 0.00 0.00 0.00 0.00 0.00 0.00 0.00 0.00 0.00 0.00 0.00 0.00 0.00 0.00 0.00 0.00 0.00 0.00 0.00 0.00 0.01 0.01 0.03 0.05 0.06 0.03 0.02 0.02 0.03 0.05 0.06 0.05 0.04 0.04 0.03 0.02 0.02 0.01 0.01 0.01
0.01 0.01 0.01 0.01 0.02 0.01 0.00 0.00 0.01 0.00 0.00 0.00 0.00 0.00 0.00 0.00 0.00 0.00 0.00 0.00 0.00 0.00 0.00 0.00 0.00 0.01 0.01 0.01 0.00 0.00 0.01 0.02 0.04 0.05 0.06 0.04 0.02 0.02 0.03 0.04 0.05 0.05 0.06 0.05 0.04 0.04 0.03 0.02 0.01
0.01 0.01 0.02 0.01 0.01 0.00 0.00 0.00 0.00 0.00 0.00 0.00 0.00 0.00 0.00 0.00 0.00 0.00 0.00 0.00 0.00 0.00 0.00 0.00 0.00 0.00 0.01 0.01 0.01 0.00 0.01 0.01 0.03 0.04 0.04 0.04 0.03 0.02 0.02 0.03 0.03 0.04 0.05 0.05 0.05 0.04 0.03 0.03 0.02
0.01 0.01 0.01 0.02 0.01 0.01 0.00 0.00 0.00 0.00 0.00 0.00 0.00 0.00 0.00 0.00 0.00 0.00 0.00 0.00 0.00 0.00 0.00 0.01 0.00 0.00 0.00 0.01 0.01 0.01 0.01 0.01 0.02 0.02 0.03 0.03 0.02 0.02 0.02 0.02 0.02 0.03 0.04 0.04 0.04 0.03 0.02 0.02 0.02
0.01 0.01 0.02 0.03 0.02 0.01 0.00 0.00 0.00 0.00 0.00 0.00 0.00 0.00 0.00 0.00 0.00 0.00 0.00 0.00 0.00 0.00 0.00 0.01 0.01 0.01 0.00 0.01 0.01 0.00 0.01 0.01 0.02 0.02 0.03 0.03 0.02 0.01 0.02 0.02 0.02 0.03 0.04 0.04 0.03 0.03 0.02 0.02 0.02
0.01 0.01 0.02 0.02 0.02 0.02 0.01 0.00 0.00 0.00 0.00 0.00 0.00 0.00 0.00 0.00 0.00 0.00 0.00 0.00 0.00 0.00 0.00 0.01 0.01 0.01 0.01 0.01 0.01 0.01 0.01 0.01 0.02 0.02 0.02 0.02 0.03 0.02 0.02 0.02 0.02 0.02 0.03 0.04 0.03 0.03 0.03 0.02 0.02
0.01 0.01 0.02 0.03 0.02 0.02 0.02 0.01 0.00 0.00 0.00 0.00 0.00 0.00 0.00 0.00 0.00 0.00 0.00 0.00 0.00 0.00 0.00 0.01 0.01 0.01 0.01 0.01 0.01 0.01 0.01 0.01 0.02 0.02 0.03 0.03 0.03 0.02 0.02 0.02 0.02 0.02 0.02 0.03 0.03 0.03 0.02 0.02 0.02
MSLP
1012.50 1012.91 1013.35 1013.72 1013.92 1013.88 1013.57 1013.04 1012.36 1011.67 1011.10 1010.78 1010.79 1011.12 1011.75 1012.55 1013.41 1014.21 1014.85 1015.30 1015.59 1015.76 1015.92 1016.12 1016.43 1016.85 1017.35 1017.87 1018.34 1018.72 1018.99 1019.15 1019.23 1019.31 1019.43 1019.62 1019.88 1020.18 1020.48 1020.74 1020.91 1020.99 1020.98 1020.92 1020.84 1020.77 1020.72 1020.71 1020.72
1012.73 1013.14 1013.51 1013.75 1013.78 1013.55 1013.07 1012.41 1011.68 1011.01 1010.54 1010.37 1010.54 1011.04 1011.79 1012.68 1013.56 1014.33 1014.91 1015.29 1015.52 1015.67 1015.82 1016.05 1016.41 1016.88 1017.44 1018.00 1018.50 1018.90 1019.18 1019.35 1019.46 1019.58 1019.74 1019.97 1020.26 1020.59 1020.91 1021.16 1021.33 1021.39 1021.38 1021.31 1021.23 1021.17 1021.14 1021.14 1021.15
1012.99 1013.36 1013.63 1013.71 1013.55 1013.14 1012.51 1011.76 1011.01 1010.40 1010.07 1010.07 1010.43 1011.10 1011.97 1012.93 1013.82 1014.56 1015.08 1015.41 1015.58 1015.70 1015.85 1016.11 1016.50 1017.02 1017.61 1018.19 1018.71 1019.12 1019.41 1019.60 1019.74 1019.88 1020.08 1020.34 1020.66 1021.00 1021.31 1021.54 1021.68 1021.72 1021.69 1021.62 1021.55 1021.51 1021.51 1021.54 1021.57
1013.26 1013.56 1013.70 1013.62 1013.29 1012.72 1011.98 1011.18 1010.45 1009.95 1009.75 1009.93 1010.46 1011.28 1012.25 1013.26 1014.16 1014.86 1015.34 1015.61 1015.75 1015.86 1016.02 1016.30 1016.73 1017.27 1017.87 1018.47 1018.99 1019.40 1019.69 1019.90 1020.07 1020.25 1020.48 1020.77 1021.10 1021.43 1021.72 1021.92 1022.03 1022.04 1021.99 1021.93 1021.88 1021.87 1021.91 1021.97 1022.04
1013.48 1013.70 1013.72 1013.50 1013.03 1012.35 1011.55 1010.75 1010.09 1009.69 1009.65 1009.98 1010.64 1011.56 1012.60 1013.61 1014.49 1015.16 1015.60 1015.84 1015.98 1016.10 1016.28 1016.60 1017.05 1017.61 1018.22 1018.81 1019.32 1019.72 1020.02 1020.25 1020.44 1020.66 1020.93 1021.24 1021.58 1021.91 1022.17 1022.34 1022.42 1022.41 1022.35 1022.29 1022.26 1022.29 1022.37 1022.48 1022.57
1013.61 1013.75 1013.66 1013.33 1012.78 1012.05 1011.25 1010.50 1009.93 1009.66 1009.74 1010.19 1010.94 1011.90 1012.94 1013.93 1014.77 1015.39 1015.80 1016.04 1016.19 1016.34 1016.57 1016.93 1017.41 1017.98 1018.59 1019.16 1019.66 1020.05 1020.36 1020.60 1020.84 1021.10 1021.41 1021.76 1022.11 1022.44 1022.69 1022.84 1022.89 1022.86 1022.79 1022.73 1022.73 1022.78 1022.89 1023.04 1023.17
1013.62 1013.67 1013.51 1013.13 1012.54 1011.83 1011.08 1010.43 1009.98 1009.82 1010.00 1010.51 1011.28 1012.22 1013.22 1014.14 1014.91 1015.49 1015.88 1016.13 1016.32 1016.53 1016.82 1017.22 1017.74 1018.32 1018.92 1019.47 1019.95 1020.34 1020.65 1020.92 1021.20 1021.51 1021.88 1022.27 1022.67 1023.01 1023.26 1023.40 1023.43 1023.39 1023.31 1023.25 1023.25 1023.32 1023.45 1023.61 1023.76
1013.50 1013.49 1013.28 1012.87 1012.31 1011.66 1011.02 1010.48 1010.15 1010.09 1010.33 1010.86 1011.60 1012.47 1013.37 1014.20 1014.90 1015.42 1015.80 1016.08 1016.33 1016.61 1016.97 1017.43 1017.98 1018.57 1019.16 1019.69 1020.15 1020.53 1020.85 1021.16 1021.49 1021.86 1022.29 1022.74 1023.18 1023.55 1023.83 1023.97 1024.00 1023.95 1023.86 1023.79 1023.78 1023.84 1023.96 1024.12 1024.27
1013.28 1013.21 1012.97 1012.58 1012.07 1011.52 1010.99 1010.59 1010.36 1010.38 1010.65 1011.15 1011.82 1012.59 1013.37 1014.09 1014.70 1015.19 1015.57 1015.89 1016.21 1016.57 1017.00 1017.52 1018.10 1018.70 1019.28 1019.80 1020.24 1020.61 1020.95 1021.29 1021.67 1022.10 1022.59 1023.10 1023.59 1024.01 1024.31 1024.48 1024.52 1024.46 1024.37 1024.28 1024.25 1024.28 1024.38 1024.52 1024.66
1013.00 1012.88 1012.63 1012.26 1011.83 1011.38 1010.98 1010.69 1010.55 1010.62 1010.88 1011.33 1011.90 1012.54 1013.20 1013.81 1014.35 1014.81 1015.21 1015.58 1015.98 1016.42 1016.93 1017.51 1018.12 1018.73 1019.30 1019.80 1020.23 1020.61 1020.95 1021.31 1021.73 1022.20 1022.74 1023.30 1023.84 1024.30 1024.64 1024.84 1024.91 1024.87 1024.77 1024.67 1024.61 1024.61 1024.67 1024.78 1024.91
1012.72 1012.55 1012.29 1011.95 1011.59 1011.24 1010.94 1010.73 1010.66 1010.74 1010.97 1011.33 1011.79 1012.31 1012.85 1013.37 1013.86 1014.32 1014.75 1015.19 1015.67 1016.20 1016.79 1017.42 1018.06 1018.68 1019.25 1019.75 1020.17 1020.54 1020.88 1021.26 1021.68 1022.18 1022.74 1023.33 1023.90 1024.40 1024.79 1025.03 1025.13 1025.12 1025.04 1024.94 1024.85 1024.82 1024.84 1024.92 1025.02
1012.48 1012.27 1011.99 1011.68 1011.38 1011.09 1010.86 1010.71 1010.66 1010.72 1010.89 1011.15 1011.50 1011.91 1012.35 1012.81 1013.27 1013.74 1014.22 1014.74 1015.30 1015.92 1016.58 1017.26 1017.95 1018.59 1019.17 1019.67 1020.09 1020.45 1020.79 1021.16 1021.57 1022.06 1022.61 1023.20 1023.78 1024.31 1024.74 1025.03 1025.19 1025.23 1025.18 1025.09 1025.00 1024.94 1024.94 1024.98 1025.06
1012.29 1012.04 1011.76 1011.47 1011.20 1010.96 1010.77 1010.63 1010.55 1010.55 1010.64 1010.80 1011.03 1011.34 1011.71 1012.13 1012.58 1013.08 1013.63 1014.22 1014.87 1015.57 1016.30 1017.05 1017.78 1018.47 1019.08 1019.60 1020.03 1020.39 1020.73 1021.07 1021.45 1021.89 1022.40 1022.96 1023.53 1024.07 1024.53 1024.88 1025.10 1025.21 1025.22 1025.18 1025.10 1025.05 1025.02 1025.05 1025.11
1012.15 1011.88 1011.60 1011.33 1011.08 1010.85 1010.65 1010.49 1010.36 1010.27 1010.25 1010.29 1010.42 1010.64 1010.95 1011.34 1011.80 1012.34 1012.95 1013.61 1014.34 1015.11 1015.92 1016.74 1017.54 1018.29 1018.95 1019.52 1019.99 1020.38 1020.70 1021.01 1021.35 1021.73 1022.17 1022.67 1023.20 1023.74 1024.22 1024.63 1024.94 1025.13 1025.22 1025.24 1025.22 1025.18 1025.16 1025.17 1025.23
1012.00 1011.74 1011.48 1011.22 1010.99 1010.76 1010.53 1010.31 1010.09 1009.89 1009.75 1009.67 1009.69 1009.83 1010.08 1010.45 1010.92 1011.49 1012.14 1012.87 1013.66 1014.51 1015.39 1016.29 1017.17 1018.01 1018.76 1019.41 1019.95 1020.37 1020.71 1021.00 1021.28 1021.59 1021.96 1022.39 1022.87 1023.39 1023.90 1024.36 1024.75 1025.04 1025.23 1025.33 1025.37 1025.38 1025.37 1025.39 1025.44
1011.82 1011.58 1011.35 1011.13 1010.91 1010.67 1010.40 1010.10 1009.77 1009.45 1009.17 1008.96 1008.87 1008.92 1009.11 1009.45 1009.92 1010.51 1011.19 1011.96 1012.80 1013.71 1014.66 1015.64 1016.63 1017.57 1018.44 1019.20 1019.84 1020.34 1020.71 1021.00 1021.25 1021.50 1021.79 1022.15 1022.58 1023.07 1023.59 1024.10 1024.57 1024.95 1025.25 1025.45 1025.56 1025.62 1025.65 1025.68 1025.73
1011.56 1011.36 1011.18 1011.00 1010.80 1010.55 1010.23 1009.84 1009.40 1008.94 1008.52 1008.18 1007.98 1007.93 1008.06 1008.36 1008.81 1009.40 1010.09 1010.88 1011.75 1012.70 1013.72 1014.79 1015.87 1016.94 1017.95 1018.84 1019.60 1020.20 1020.65 1020.97 1021.21 1021.42 1021.65 1021.95 1022.34 1022.80 1023.33 1023.88 1024.41 1024.88 1025.27 1025.55 1025.75 1025.87 1025.94 1025.98 1026.03
1011.19 1011.06 1010.95 1010.82 1010.65 1010.38 1010.01 1009.53 1008.97 1008.38 1007.82 1007.35 1007.03 1006.90 1006.96 1007.21 1007.63 1008.20 1008.88 1009.67 1010.56 1011.54 1012.60 1013.74 1014.92 1016.11 1017.26 1018.30 1019.19 1019.92 1020.46 1020.84 1021.10 1021.30 1021.51 1021.78 1022.12 1022.57 1023.10 1023.67 1024.25 1024.78 1025.24 1025.61 1025.87 1026.05 1026.16 1026.24 1026.30
1010.73 1010.68 1010.64 1010.57 1010.43 1010.15 1009.73 1009.17 1008.49 1007.77 1007.08 1006.49 1006.07 1005.85 1005.85 1006.05 1006.44 1006.98 1007.65 1008.43 1009.31 1010.30 1011.39 1012.58 1013.84 1015.13 1016.40 1017.57 1018.60 1019.45 1020.10 1020.56 1020.88 1021.11 1021.33 1021.58 1021.91 1022.34 1022.86 1023.45 1024.05 1024.62 1025.14 1025.56 1025.88 1026.11 1026.27 1026.38 1026.47
1010.23 1010.25 1010.29 1010.28 1010.16 1009.87 1009.40 1008.75 1007.97 1007.13 1006.32 1005.63 1005.12 1004.84 1004.79 1004.96 1005.33 1005.85 1006.51 1007.27 1008.14 1009.12 1010.22 1011.43 1012.73 1014.08 1015.43 1016.71 1017.85 1018.81 1019.57 1020.13 1020.52 1020.81 1021.06 1021.32 1021.66 1022.08 1022.60 1023.18 1023.78 1024.38 1024.91 1025.37 1025.74 1026.03 1026.24 1026.40 1026.52
1009.73 1009.84 1009.95 1009.99 1009.88 1009.57 1009.04 1008.31 1007.43 1006.49 1005.58 1004.82 1004.25 1003.93 1003.86 1004.02 1004.39 1004.92 1005.56 1006.32 1007.17 1008.13 1009.20 1010.40 1011.70 1013.07 1014.45 1015.78 1016.99 1018.04 1018.89 1019.54 1020.02 1020.38 1020.68 1020.99 1021.34 1021.77 1022.28 1022.85 1023.45 1024.03 1024.58 1025.06 1025.46 1025.79 1026.06 1026.28 1026.47
1009.31 1009.50 1009.68 1009.76 1009.65 1009.31 1008.71 1007.89 1006.92 1005.89 1004.91 1004.09 1003.49 1003.16 1003.11 1003.30 1003.70 1004.25 1004.91 1005.66 1006.49 1007.42 1008.45 1009.59 1010.84 1012.17 1013.53 1014.86 1016.09 1017.18 1018.09 1018.82 1019.38 1019.82 1020.20 1020.56 1020.95 1021.40 1021.91 1022.46 1023.04 1023.61 1024.15 1024.64 1025.07 1025.44 1025.77 1026.07 1026.34
1009.01 1009.29 1009.52 1009.62 1009.50 1009.11 1008.44 1007.53 1006.47 1005.36 1004.33 1003.48 1002.89 1002.59 1002.57 1002.82 1003.27 1003.86 1004.55 1005.31 1006.13 1007.01 1007.98 1009.04 1010.21 1011.45 1012.74 1014.01 1015.21 1016.30 1017.25 1018.03 1018.66 1019.18 1019.63 1020.06 1020.50 1020.98 1021.49 1022.04 1022.60 1023.16 1023.69 1024.17 1024.63 1025.04 1025.44 1025.81 1026.17
1008.85 1009.21 1009.50 1009.60 1009.45 1008.99 1008.24 1007.25 1006.10 1004.94 1003.87 1003.02 1002.45 1002.20 1002.25 1002.57 1003.08 1003.74 1004.47 1005.24 1006.04 1006.87 1007.76 1008.73 1009.78 1010.90 1012.07 1013.25 1014.39 1015.45 1016.39 1017.21 1017.90 1018.49 1019.02 1019.52 1020.01 1020.52 1021.06 1021.61 1022.16 1022.70 1023.22 1023.71 1024.18 1024.64 1025.09 1025.54 1025.98
1008.81 1009.25 1009.56 1009.66 1009.46 1008.93 1008.10 1007.02 1005.81 1004.60 1003.53 1002.69 1002.17 1001.97 1002.10 1002.50 1003.09 1003.80 1004.56 1005.34 1006.12 1006.90 1007.71 1008.56 1009.48 1010.47 1011.51 1012.57 1013.62 1014.63 1015.55 1016.38 1017.12 1017.78 1018.38 1018.94 1019.50 1020.06 1020.62 1021.18 1021.73 1022.27 1022.78 1023.29 1023.78 1024.27 1024.76 1025.27 1025.78
1008.82 1009.31 1009.64 1009.70 1009.45 1008.84 1007.93 1006.79 1005.54 1004.32 1003.26 1002.46 1002.00 1001.88 1002.08 1002.55 1003.20 1003.96 1004.75 1005.52 1006.27 1006.99 1007.70 1008.44 1009.23 1010.09 1010.99 1011.94 1012.90 1013.84 1014.74 1015.58 1016.35 1017.06 1017.72 1018.36 1018.97 1019.57 1020.17 1020.75 1021.31 1021.86 1022.38 1022.90 1023.41 1023.92 1024.45 1025.00 1025.55
1008.78 1009.29 1009.60 1009.62 1009.29 1008.63 1007.66 1006.49 1005.23 1004.03 1003.01 1002.29 1001.90 1001.86 1002.14 1002.67 1003.37 1004.14 1004.93 1005.68 1006.38 1007.03 1007.66 1008.29 1008.96 1009.69 1010.48 1011.32 1012.20 1013.08 1013.96 1014.80 1015.59 1016.35 1017.07 1017.76 1018.43 1019.08 1019.71 1020.32 1020.90 1021.46 1022.00 1022.53 1023.06 1023.60 1024.15 1024.71 1025.28
1008.60 1009.08 1009.33 1009.28 1008.89 1008.17 1007.18 1006.02 1004.80 1003.67 1002.75 1002.12 1001.83 1001.89 1002.24 1002.82 1003.54 1004.32 1005.08 1005.79 1006.42 1006.99 1007.52 1008.05 1008.62 1009.24 1009.93 1010.69 1011.50 1012.35 1013.20 1014.05 1014.87 1015.66 1016.43 1017.16 1017.88 1018.56 1019.23 1019.86 1020.47 1021.06 1021.62 1022.17 1022.72 1023.26 1023.82 1024.38 1024.94
1008.18 1008.57 1008.73 1008.60 1008.16 1007.42 1006.44 1005.34 1004.22 1003.23 1002.45 1001.97 1001.81 1001.97 1002.40 1003.02 1003.74 1004.50 1005.21 1005.85 1006.40 1006.88 1007.32 1007.75 1008.22 1008.76 1009.38 1010.07 1010.84 1011.65 1012.49 1013.34 1014.18 1015.00 1015.80 1016.57 1017.31 1018.03 1018.72 1019.38 1020.02 1020.63 1021.22 1021.79 1022.36 1022.91 1023.47 1024.02 1024.56
1007.50 1007.76 1007.80 1007.59 1007.11 1006.38 1005.48 1004.50 1003.55 1002.74 1002.16 1001.87 1001.87 1002.16 1002.66 1003.32 1004.05 1004.76 1005.41 1005.96 1006.42 1006.80 1007.13 1007.48 1007.86 1008.32 1008.87 1009.51 1010.24 1011.03 1011.86 1012.71 1013.56 1014.39 1015.21 1016.00 1016.76 1017.50 1018.21 1018.89 1019.56 1020.19 1020.81 1021.41 1021.99 1022.55 1023.10 1023.64 1024.14
Thickness
5693 5698 5701 5695 5679 5673 5677 5694 5704 5701 5699 5698 5700 5699 5691 5681 5678 5665 5660 5667 5667 5667 5667 5667 5669 5671 5672 5673 5674 5675 5676 5677 5678 5679 5680 5681 5682 5683 5683 5684 5685 5686 5687 5688 5688 5689 5690 5691 5692
5690 5696 5692 5683 5669 5664 5676 5692 5694 5693 5693 5693 5693 5692 5685 5672 5669 5662 5660 5662 5663 5663 5663 5663 5665 5666 5667 5668 5669 5670 5671 5672 5673 5674 5675 5676 5677 5678 5678 5679 5680 5681 5682 5682 5683 5684 5685 5686 5687
5687 5691 5681 5674 5668 5669 5678 5690 5688 5684 5688 5687 5681 5679 5675 5665 5663 5658 5656 5657 5658 5658 5658 5658 5660 5661 5662 5664 5665 5665 5666 5667 5668 5668 5669 5671 5671 5672 5673 5673 5674 5675 5676 5677 5678 5679 5680 5681 5682
5682 5678 5675 5666 5665 5675 5681 5684 5682 5678 5678 5680 5677 5666 5661 5659 5658 5654 5653 5654 5654 5654 5653 5653 5655 5656 5657 5658 5659 5660 5661 5661 5662 5663 5664 5665 5666 5666 5667 5668 5668 5669 5671 5672 5673 5674 5674 5675 5677
5676 5669 5660 5656 5663 5673 5680 5683 5680 5675 5670 5671 5671 5661 5650 5649 5650 5649 5649 5649 5649 5648 5648 5648 5649 5650 5651 5652 5653 5654 5655 5656 5656 5657 5657 5658 5659 5660 5661 5661 5662 5663 5665 5666 5667 5668 5669 5670 5671
5663 5663 5652 5651 5661 5669 5674 5677 5675 5670 5666 5665 5664 5656 5644 5643 5643 5642 5643 5643 5643 5642 5642 5642 5642 5643 5644 5645 5646 5647 5648 5649 5649 5650 5650 5651 5652 5653 5654 5655 5656 5657 5658 5659 5661 5662 5663 5664 5665
5654 5652 5650 5656 5657 5661 5667 5671 5666 5663 5658 5657 5659 5650 5639 5636 5637 5636 5636 5637 5636 5636 5636 5636 5636 5636 5637 5638 5639 5640 5641 5642 5642 5643 5643 5644 5645 5646 5646 5647 5649 5650 5652 5653 5654 5655 5656 5658 5659
5652 5648 5649 5653 5653 5655 5660 5660 5659 5657 5651 5653 5652 5644 5635 5632 5631 5630 5629 5629 5630 5630 5629 5629 5629 5630 5630 5631 5632 5633 5633 5634 5635 5636 5636 5637 5638 5638 5639 5639 5641 5643 5645 5646 5647 5648 5650 5651 5652
5650 5636 5637 5646 5649 5649 5651 5648 5646 5646 5643 5641 5638 5634 5634 5629 5625 5622 5621 5621 5622 5622 5622 5622 5622 5623 5623 5624 5625 5626 5626 5627 5628 5629 5629 5629 5630 5630 5631 5632 5633 5635 5637 5639 5640 5642 5643 5644 5645
5636 5625 5634 5641 5643 5642 5641 5639 5636 5633 5630 5628 5625 5622 5622 5619 5616 5615 5614 5614 5614 5614 5614 5614 5615 5615 5616 5617 5617 5618 5619 5620 5621 5621 5622 5622 5623 5623 5623 5624 5625 5627 5629 5631 5633 5634 5635 5637 5638
5631 5625 5630 5631 5632 5634 5631 5630 5631 5627 5622 5623 5620 5614 5611 5609 5608 5607 5607 5606 5606 5606 5606 5606 5606 5607 5608 5609 5610 5611 5612 5612 5613 5614 5614 5615 5616 5616 5616 5617 5617 5619 5620 5622 5624 5626 5627 5629 5631
5621 5621 5623 5620 5619 5621 5620 5621 5617 5616 5617 5620 5619 5612 5606 5602 5600 5600 5600 5600 5599 5598 5598 5598 5598 5599 5600 5601 5603 5603 5604 5605 5605 5606 5607 5607 5608 5608 5608 5609 5609 5610 5612 5613 5615 5617 5619 5621 5623
5612 5610 5611 5609 5607 5608 5609 5608 5607 5608 5609 5611 5610 5604 5599 5596 5594 5593 5594 5593 5592 5590 5589 5589 5590 5591 5592 5593 5594 5595 5596 5596 5597 5598 5599 5599 5599 5600 5600 5601 5601 5602 5603 5605 5607 5609 5611 5613 5614
5605 5602 5600 5600 5599 5598 5596 5597 5597 5602 5602 5601 5599 5594 5591 5589 5588 5586 5585 5585 5584 5582 5581 5581 5581 5582 5583 5584 5585 5586 5587 5587 5588 5590 5590 5591 5591 5591 5592 5592 5593 5594 5595 5596 5598 5600 5602 5604 5605
5595 5590 5591 5594 5594 5591 5586 5585 5591 5596 5595 5592 5590 5587 5585 5583 5581 5580 5579 5577 5576 5574 5573 5572 5572 5572 5574 5575 5576 5577 5578 5579 5579 5581 5582 5582 5582 5582 5583 5583 5584 5585 5586 5587 5589 5591 5593 5595 5596
5585 5582 5580 5589 5588 5581 5573 5578 5591 5590 5586 5583 5580 5579 5577 5576 5575 5573 5571 5569 5568 5566 5564 5563 5563 5563 5564 5565 5567 5568 5569 5570 5570 5571 5572 5573 5573 5574 5573 5573 5574 5575 5576 5578 5580 5581 5582 5584 5585
5571 5570 5577 5578 5580 5574 5564 5570 5581 5581 5579 5575 5573 5572 5570 5568 5567 5566 5564 5561 5559 5558 5556 5554 5554 5554 5554 5555 5557 5558 5559 5560 5561 5561 5563 5563 5564 5564 5564 5564 5564 5565 5566 5567 5569 5570 5571 5572 5574
5565 5566 5572 5571 5568 5564 5557 5562 5570 5570 5569 5567 5565 5564 5562 5561 5560 5558 5555 5553 5551 5549 5547 5545 5545 5544 5544 5545 5546 5547 5549 5550 5551 5551 5552 5553 5554 5554 5554 5554 5554 5554 5555 5556 5557 5559 5560 5561 5562
5558 5556 5557 5560 5558 5552 5549 5555 5563 5561 5558 5557 5557 5555 5554 5554 5553 5550 5547 5544 5541 5539 5537 5536 5534 5534 5533 5534 5535 5536 5537 5538 5540 5541 5542 5543 5544 5544 5544 5544 5543 5543 5544 5545 5546 5547 5548 5549 5551
5544 5541 5543 5544 5543 5539 5537 5544 5555 5556 5552 5552 5550 5548 5547 5545 5543 5541 5538 5534 5532 5530 5528 5526 5525 5524 5523 5523 5524 5526 5526 5527 5529 5530 5531 5532 5533 5533 5533 5534 5533 5533 5533 5533 5534 5535 5535 5537 5538
5534 5528 5528 5526 5524 5525 5519 5529 5544 5551 5549 5547 5546 5544 5541 5538 5534 5531 5528 5525 5522 5519 5518 5518 5515 5514 5513 5513 5513 5513 5514 5515 5516 5518 5519 5521 5521 5522 5522 5522 5522 5522 5521 5520 5522 5523 5524 5524 5525
5519 5520 5516 5511 5502 5504 5511 5506 5538 5539 5535 5536 5533 5531 5529 5527 5525 5522 5519 5515 5512 5510 5507 5506 5504 5503 5502 5502 5502 5502 5503 5503 5506 5507 5507 5509 5509 5510 5511 5511 5511 5510 5509 5509 5509 5511 5511 5511 5512
5505 5505 5501 5498 5492 5487 5497 5488 5517 5526 5523 5524 5522 5519 5517 5515 5513 5511 5508 5505 5503 5499 5496 5494 5493 5492 5491 5491 5491 5490 5491 5492 5493 5494 5495 5496 5497 5498 5498 5499 5499 5498 5498 5497 5497 5497 5498 5498 5499
5492 5489 5486 5484 5477 5472 5491 5485 5502 5514 5520 5517 5511 5507 5504 5502 5500 5498 5496 5493 5490 5488 5485 5483 5482 5481 5479 5479 5479 5479 5479 5480 5480 5481 5482 5483 5484 5485 5485 5485 5485 5485 5485 5485 5484 5484 5484 5485 5486
5477 5470 5468 5468 5465 5476 5488 5481 5492 5507 5509 5505 5498 5494 5491 5488 5486 5483 5481 5479 5477 5475 5473 5472 5470 5469 5468 5467 5467 5467 5467 5468 5469 5469 5470 5470 5470 5471 5471 5471 5471 5471 5471 5471 5471 5470 5470 5471 5472
5465 5466 5460 5461 5470 5477 5468 5471 5487 5495 5492 5490 5486 5482 5478 5475 5472 5471 5469 5466 5464 5463 5460 5459 5458 5457 5456 5455 5454 5455 5455 5455 5456 5456 5456 5456 5457 5458 5458 5457 5457 5457 5457 5457 5457 5457 5457 5458 5458
5456 5452 5456 5449 5450 5447 5465 5476 5481 5482 5476 5473 5469 5465 5461 5460 5459 5458 5456 5453 5451 5449 5448 5446 5445 5444 5443 5443 5442 5442 5442 5443 5443 5443 5442 5443 5444 5444 5443 5443 5443 5443 5443 5443 5444 5443 5444 5444 5444
5440 5440 5436 5434 5437 5443 5462 5469 5468 5463 5458 5455 5452 5449 5448 5447 5446 5444 5442 5440 5438 5436 5434 5432 5432 5431 5430 5430 5429 5429 5429 5429 5429 5429 5429 5429 5429 5429 5429 5428 5428 5428 5428 5429 5430 5429 5430 5430 5431
5427 5426 5427 5429 5430 5432 5438 5454 5463 5458 5450 5442 5438 5437 5436 5435 5433 5431 5429 5427 5424 5422 5421 5419 5418 5417 5416 5416 5416 5415 5415 5415 5416 5416 5416 5415 5415 5415 5415 5414 5414 5414 5414 5414 5415 5415 5415 5415 5416
5425 5424 5420 5415 5419 5422 5421 5435 5444 5441 5436 5430 5425 5423 5422 5421 5420 5418 5415 5413 5410 5408 5407 5406 5404 5403 5403 5403 5402 5401 5402 5402 5402 5402 5402 5402 5401 5401 5401 5400 5400 5399 5400 5400 5400 5401 5401 5401 5402